カタログに戻る

CZ-4 DEB

運用中SSO
NORAD 35319·DEBRIS·🇨🇳 China

打ち上げ Oct 14, 1999 から Taiyuan Satellite Launch Center

Loading…

次のパス (今後24時間)

TLE

経年Source: Space-Track

元期: Sep 11, 2026, 00:57 UTC

1 35319U 99057RX  26254.04008164  .00000539  00000-0  25679-3 0  9992
2 35319  98.6574 333.4707 0190394  98.7067  23.2719 14.13984657277134

AllMySatでCZ-4 DEBをリアルタイム追跡

Download on the App Store